Weather in Selebi Phikwe

Botswana     21°58′28″S   27°50′22″E
temp.,
°C
wind,
m/s
gust,
m/s
humid.,
%
clouds,
%
prec.,
mm/h
press.,
hPa
HPBL,
m
23 october, sat
sat2323:00+26e253354 0.0 1011109
02:00+24ese22365 0.0 100919
05:00+22e22421 0.0 101012
08:00+29ene22290 0.0 1011363
11:00+36nnw261946 0.0 10083287
14:00+39wnw461458 0.0 10044470
17:00+35se241935 0.0 1003210
20:00+32nw232098 0.0 100544
24 october, sun
sun2423:00+28e243168 0.0 1009119
02:00+24sse38430 0.0 1009146
05:00+23ssw34189 0.0 101159
08:00+30se4795 0.0 1012537
11:00+33e119246 0.0 10112151
14:00+33e88275 0.0 10101889
17:00+29e10113548 0.3 10111685
20:00+21e1115574 0.3 10171000
25 october, mon
mon2523:00+17e10177480 0.1 1019877
02:00+16e91576100 0.1 1018938
05:00+15e81479100 0.0 1019850
08:00+16e81479100 0.0 1022882
11:00+16ene81277100 0.3 1022800
14:00+22ene895549 0.6 10181134
17:00+20ene810604 0.0 1015892
20:00+16e5982100 0.0 1019513
26 october, tue
tue2623:00+15ese5986100 0.6 1020682
02:00+15ene61287100 1.5 1017630
05:00+15e51285100 0.0 1018720
08:00+17ene71182100 0.0 1019720
11:00+21ene676388 0.0 10181000
14:00+28e434096 0.0 10131241
17:00+28ese44405 0.0 10131181
20:00+23e49560 0.0 1015290
27 october, wed
wed2723:00+22ene512590 0.0 1016501
02:00+21e4126815 0.0 1015454
05:00+20e5137120 0.0 1016571
08:00+24ene81153100 0.0 1017926
11:00+30ene683538 0.0 10151550
14:00+34e662611 0.0 10112859
17:00+31ene4731100 0.1 10102083
20:00+23nw346799 1.8 1015218